TIME,DELAY(SENSOR),PRES,T(CTD),SAL,OXYGEN,RAWTEMP,T(OPTODE),TCPHASE,FLUOR,BETA(BETA700),BETA(BETA412),BETA(BETA440),CDOM,C(CSC),ED(ED411.90),ED(ED443.80),ED(ED489.40),ED(ED554.70),LU(LU412.20),LU(LU443.80),LU(LU489.40),LU(LU555.00),COMP,TILTX,TILTX(TILTY),CHECK
1372349001,5804,493.5299987792969000,18.0736007690429700,36.5424995422363300,229.1864929199218800,152.7958068847656200,18.0723896026611330,30.9854907989501950,50,97,92,80,65,10302,2146957348,2147514733,2147269760,2147454564,2147081764,2146952630,2147651776,2147131446,999,-2,8,62395
1372349124,5804,482.7399902343750000,18.1781005859375000,36.5489006042480500,232.0323944091797000,149.4593963623047000,18.1731700897216800,30.8004703521728500,50,97,92,80,65,10298,2146957266,2147513554,2147271012,2147451026,2147080932,2146955090,2147651355,2147129609,3235,-2,8,488
1372349256,5807,471.3200073242187500,18.2591991424560550,36.5521011352539060,237.6712951660156200,146.8236999511718800,18.2528095245361330,30.4936199188232420,50,96,92,80,65,10302,2146957376,2147512932,2147267318,2147453193,2147082550,2146952301,2147646345,2147128795,2266,-1,8,48631
1372349380,5804,460.8299865722656000,18.3059997558593750,36.5514984130859400,242.6293029785156200,145.2462005615234400,18.3004703521728500,30.2404193878173830,50,96,92,79,65,10305,2146957129,2147515337,2147269403,2147450404,2147078354,2146954148,2147646125,2147129929,1382,-1,8,58940
1372349523,5809,449.0700073242187500,18.3439998626709000,36.5513000488281250,247.3350067138672000,143.9600982666015600,18.3393402099609380,30.0085201263427730,50,95,92,79,63,10303,2146954980,2147513024,2147271360,2147453238,2147079268,2146952256,2147651474,2147126701,1876,-1,8,64930
1372349658,5806,438.1600036621094000,18.3911991119384770,36.5495986938476560,252.1101074218750000,142.4212951660156200,18.3858509063720700,29.7747993469238280,50,95,92,81,63,10307,2146955565,2147514569,2147271305,2147449746,2147070217,2146951881,2147645476,2147128950,1288,-2,8,62312
1372349790,5808,427.6600036621094000,18.4102001190185550,36.5500984191894500,254.2489929199218800,141.7765960693359400,18.4053401947021500,29.6724205017089840,50,96,91,80,63,10305,2146957961,2147510720,2147268480,2147451017,2147078701,2146954386,2147646893,2147131812,542,-1,8,322
1372349933,5808,416.5799865722656000,18.4459991455078120,36.5545005798339840,255.3943023681640600,140.5549926757812500,18.4422607421875000,29.6064796447753900,50,95,92,80,62,10302,2146957778,2147512539,2147268772,2147451062,2147074130,2146953206,2147646793,2147127780,2675,-1,8,1369
1372350063,5805,405.2999877929687500,18.4636993408203120,36.5573005676269500,255.8628997802734400,139.9389953613281200,18.4608898162841800,29.5781707763671880,50,96,93,80,63,10303,2146956242,2147513746,2147268315,2147447680,2147073033,2146956059,2147650194,2147127881,1561,-1,8,183
1372350179,5806,393.5799865722656000,18.4843997955322270,36.5612983703613300,256.2766113281250000,139.2940063476562500,18.4803905487060550,29.5519790649414060,50,95,92,81,62,10302,2146955008,2147514788,2147267026,2147451145,2147070637,2146957193,2147645019,2147128329,1457,-1,8,38871
1372350292,5804,382.1600036621094000,18.4915008544921880,36.5615005493164060,256.5621032714844000,139.0923004150390600,18.4864902496337900,29.5368194580078120,50,98,91,80,63,10304,2146956918,2147513444,2147266605,2147448338,2147075638,2146954468,2147653632,2147129188,1149,-1,8,32167
1372350402,5807,371.0799865722656000,18.4930992126464840,36.5617980957031250,256.6719055175781000,139.0305023193359400,18.4883594512939450,29.5312004089355470,50,96,93,79,63,10304,2146956077,2147512777,2147268681,2147450258,2147075968,2146961856,2147650596,2147128859,686,-1,8,33495
1372350512,5805,360.1600036621094000,18.4864006042480470,36.5577011108398440,256.7272949218750000,139.2274017333984400,18.4824008941650400,29.5314197540283200,50,96,91,79,62,10302,2146954797,2147514340,2147267108,2147448896,2147079780,2146955218,2147652699,2147129179,3392,-1,8,38669
1372350622,5808,349.6900024414062500,18.4841003417968750,36.5530014038085940,256.6976013183594000,139.3013000488281200,18.4801692962646500,29.5339107513427730,50,96,92,81,62,10299,2146954267,2147513508,2147268955,2147448265,2147075291,2146955949,2147651190,2147129517,2720,-1,8,63764
1372350761,5803,338.4599914550781000,18.4953002929687500,36.5531005859375000,256.6698913574219000,138.9400024414062500,18.4910907745361330,29.5302696228027340,50,98,92,81,62,10302,2146956123,2147515986,2147265618,2147447158,2147070363,2146957622,2147651136,2147128292,2571,-2,8,18873
1372350907,5804,327.2399902343750000,18.4946994781494140,36.5523986816406250,256.9725952148437500,138.9510955810547000,18.4907608032226560,29.5172691345214840,50,96,92,81,63,10299,2146954240,2147512118,2147267565,2147447597,2147072905,2146956891,2147655817,2147129069,1585,-1,8,17226
1372351050,5805,316.3200073242187500,18.5009994506835940,36.5494003295898440,257.0957946777344000,138.7769927978515600,18.4960193634033200,29.5098896026611330,50,99,92,82,63,10294,2146956141,2147512658,2147266514,2147450313,2147081069,2146956681,2147660114,2147130660,952,-1,8,45675
1372351226,5802,302.4299926757812500,18.5156993865966800,36.5508995056152340,256.9849853515625000,138.2837982177734400,18.5109291076660160,29.5081596374511720,50,101,94,81,63,10295,2146955501,2147514377,2147269229,2147450916,2147077915,2146958098,2147662016,2147129764,1123,-1,8,13386
1372351347,5802,290.9200134277344000,18.5240001678466800,36.5516014099121100,257.0115051269531000,137.9584960937500000,18.5207691192626950,29.5028305053710940,50,98,92,81,63,10300,2146954880,2147513563,2147268498,2147449801,2147082578,2146963218,2147664868,2147128402,1236,-1,8,15188
1372351457,5802,279.9800109863281000,18.5508995056152340,36.5545005798339840,256.9078979492187500,137.0979003906250000,18.5467891693115230,29.4959297180175780,50,97,92,80,63,10297,2146956333,2147514038,2147265929,2147447286,2147072914,2146964342,2147677321,2147130413,669,-1,8,30702
1372351569,5804,268.8399963378906000,18.5629005432128900,36.5547981262207000,257.0046081542969000,136.7019042968750000,18.5587596893310550,29.4866409301757800,50,97,94,81,63,10300,2146953005,2147516662,2147266112,2147449499,2147075337,2146972818,2147691053,2147130852,3405,-1,8,35722
1372351679,5809,257.7799987792969000,18.5790996551513670,36.5564994812011700,256.5494995117187500,136.1553039550781200,18.5752906799316400,29.4993190765380860,50,96,92,81,63,10298,2146955776,2147514093,2147269275,2147448000,2147080237,2146981129,2147708544,2147130486,18,-1,8,64419
1372351789,5807,246.6100006103515600,18.6072998046875000,36.5568008422851560,256.3612976074219000,135.0802001953125000,18.6077995300292970,29.4934597015380860,50,97,92,82,63,10297,2146953910,2147517476,2147269430,2147447579,2147079798,2146984777,2147723529,2147132928,3594,-1,8,9327
1372351917,5805,234.9600067138672000,18.6658992767334000,36.5597000122070300,256.3888854980469000,133.3215026855468800,18.6609992980957030,29.4695091247558600,50,97,92,80,63,10293,2146955675,2147512731,2147270912,2147446363,2147072795,2146989174,2147725842,2147130276,599,-1,8,39028
1372352060,5805,224.1100006103515600,18.7642993927001950,36.5625000000000000,257.0093078613281000,130.1136016845703000,18.7580394744873050,29.4011402130126950,51,98,92,81,64,10291,2146958253,2147517549,2147272868,2147446473,2147082624,2147013449,2147784036,2147135826,581,-1,8,1502
1372352223,5805,210.4900054931640600,18.8034992218017580,36.5660018920898440,256.1921997070312500,128.7200927734375000,18.8001995086669920,29.4180908203125000,52,98,92,81,63,10297,2146955410,2147517220,2147272164,2147448676,2147081408,2147007588,2147764489,2147133595,2944,-1,8,44561
1372352344,5809,198.8099975585937500,18.9689998626709000,36.5723991394043000,252.3899993896484400,123.3964004516601600,18.9613208770751950,29.5146903991699220,53,99,92,81,63,10294,2146955126,2147520036,2147274386,2147446848,2147083410,2147049270,2147839506,2147138249,2700,-1,8,16876
1372352399,5803,193.6999969482422000,18.9997005462646500,36.5746002197265600,251.9008026123047000,122.2323989868164000,18.9965591430664060,29.5210895538330080,53,99,92,81,62,10289,2146954514,2147519186,2147274194,2147448813,2147081865,2147062162,2147880265,2147139346,2868,-1,8,30674
1372352476,5805,187.0000000000000000,19.0599002838134770,36.5765991210937500,251.1033020019531200,119.7680969238281200,19.0711803436279300,29.5242404937744140,55,99,92,81,64,10283,2146955675,2147516909,2147275757,2147447350,2147090468,2147063341,2147872320,2147138249,2866,-2,8,34814
1372352531,5806,182.7299957275390600,19.1128005981445300,36.5811996459960940,250.0673980712890600,118.5500030517578100,19.1080703735351560,29.5543193817138670,55,99,93,80,63,10293,2146954139,2147520969,2147273188,2147447716,2147097718,2147097590,2147934006,2147142729,2966,-1,9,58622
1372352586,5803,178.5599975585937500,19.1711006164550780,36.5870018005371100,248.3110046386718800,116.5833969116211000,19.1676292419433600,29.6069507598876950,55,100,91,81,64,10291,2146958601,2147519378,2147276992,2147446765,2147092489,2147116672,2147972324,2147142345,3017,-2,8,32364
1372352641,5805,174.5099945068359400,19.2824001312255860,36.6026992797851560,244.4263000488281200,112.0836029052734400,19.3039703369140620,29.7237091064453120,54,99,92,82,65,10292,2146952996,2147520228,2147279835,2147449682,2147100790,2147136676,2148015177,2147147419,215,-2,8,33588
1372352696,5805,170.6499938964843800,19.4382991790771500,36.6189002990722660,238.0052032470703000,107.8347015380859400,19.4327602386474600,29.9645805358886720,54,100,92,82,65,10292,2146957019,2147518701,2147274605,2147444836,2147107382,2147149202,2148026139,2147148050,3371,-1,8,62580
1372352751,5804,166.9400024414062500,19.5165996551513670,36.6242980957031250,234.3327026367187500,105.6868972778320300,19.4978809356689450,30.1103801727294920,55,98,92,81,65,10288,2146954861,2147523574,2147284726,2147447853,2147119314,2147265170,2148261988,2147162624,2930,-1,8,3357
1372352834,5803,161.8699951171875000,19.6383991241455080,36.6174011230468750,239.0368957519531200,101.4157028198242200,19.6274204254150400,29.8329505920410160,56,100,92,82,65,10290,2146954907,2147519963,2147282752,2147444955,2147114441,2147222646,2148161773,2147156132,2532,-1,8,50854
1372352900,5806,158.4299926757812500,19.6609992980957030,36.6183013916015600,240.0950927734375000,100.4218978881836000,19.6575794219970700,29.7708702087402340,56,98,92,81,66,10290,2146956946,2147519579,2147279762,2147444452,2147117787,2147189440,2148090185,2147151186,2801,-1,8,21859
1372352977,5804,154.0899963378906200,19.7838001251220700,36.6418991088867200,227.1047973632812500,96.4303665161132800,19.7787094116210940,30.3401794433593750,53,97,92,81,66,10297,2146955574,2147519707,2147279561,2147444278,2147123355,2147217627,2148143131,2147158052,3245,-1,9,6504
1372353043,5802,150.3200073242187500,19.7779998779296880,36.5937004089355500,244.6911010742187500,96.4492568969726600,19.7781295776367200,29.5092506408691400,103,114,95,83,65,10230,2146954432,2147523081,2147281472,2147444580,2147130157,2147238747,2148179282,2147158061,3178,-1,9,29083
1372353112,5806,146.5500030517578000,19.9363002777099600,36.5920982360839840,255.8043975830078000,91.8888778686523400,19.9165897369384770,28.9618091583251950,91,110,96,83,65,10224,2146951021,2147525851,2147290029,2147442386,2147155200,2147351414,2148411163,2147171218,2603,-1,9,16997
1372353189,5804,142.4299926757812500,19.9979991912841800,36.5933990478515600,260.6357116699219000,89.4426727294921900,19.9908905029296880,28.7262992858886720,80,111,95,84,64,10237,2146956278,2147524196,2147288192,2147443520,2147159762,2147311433,2148296566,2147167689,2473,-1,8,51809
1372353266,5800,138.3200073242187500,20.2112998962402340,36.6290016174316400,254.9799957275390600,82.6230468750000000,20.1981391906738280,28.8793907165527340,70,105,93,81,64,10256,2146959232,2147525385,2147297837,2147444754,2147210944,2147519734,2148678080,2147190729,2828,-1,8,42248
1372353343,5805,134.5399932861328000,20.4757995605468750,36.6665992736816400,245.5319976806640600,74.0488128662109400,20.4589500427246100,29.1839694976806640,68,102,92,81,66,10265,2146958317,2147535323,2147310290,2147442733,2147261001,2147705106,2148980928,2147211922,2448,-2,9,59253
1372353434,5805,130.8899993896484400,20.5883007049560550,36.6763992309570300,239.0193023681640600,70.1465682983398400,20.5777397155761720,29.4301300048828120,63,100,93,81,65,10279,2146959716,2147537974,2147312932,2147441645,2147288749,2147767323,2149054802,2147218962,2605,-2,9,13233
1372353544,5804,126.6600036621093800,20.6070003509521500,36.6763992309570300,237.1096038818359400,69.5043563842773400,20.5972995758056640,29.5102901458740230,64,99,93,82,64,10278,2146958537,2147538386,2147315556,2147440201,2147332214,2147874742,2149188324,2147228955,2550,-1,9,62874
1372353643,5803,122.6999969482421900,20.7248992919921880,36.6762008666992200,236.6546936035156200,65.9646301269531200,20.7051200866699220,29.4860095977783200,65,102,93,83,65,10282,2146959808,2147549531,2147332004,2147442614,2147419346,2148128896,2149571099,2147249746,2576,-2,8,30479
1372353767,5804,118.8499984741211000,20.9256992340087900,36.6767997741699200,235.0095977783203000,58.9088706970214840,20.9201908111572270,29.4727897644042970,68,105,92,81,65,10273,2146958966,2147546660,2147326226,2147438381,2147414820,2148035309,2149358244,2147239076,1936,-2,8,46809
1372353899,5806,114.9800033569336000,20.9284000396728500,36.5984992980957000,245.5137939453125000,58.6715583801269500,20.9274291992187500,28.9892196655273440,80,116,95,85,64,10246,2146961536,2147545270,2147328658,2147438317,2147457773,2148095268,2149426514,2147248091,917,-2,8,65395
1372354038,5805,108.5199966430664000,21.2271003723144530,36.5998001098632800,248.2846069335937500,49.4999504089355500,21.2073192596435550,28.7504692077636720,97,117,97,84,64,10231,2146962486,2147557796,2147345216,2147439954,2147592438,2148367890,2149836480,2147280594,480,-1,8,50535
1372354093,5807,105.2399978637695300,21.4034004211425780,36.5932998657226560,247.5391998291015600,43.7060012817382800,21.3843307495117200,28.7101402282714840,101,120,94,84,63,10215,2146964397,2147562240,2147351606,2147442038,2147672082,2148519808,2150058340,2147304091,894,-2,9,29217
1372354170,5806,101.8499984741211000,21.5095996856689450,36.5971984863281250,247.8834991455078000,39.9963188171386700,21.4977493286132800,28.6483802795410160,112,124,97,86,65,10203,2146969426,2147579748,2147389293,2147440210,2147939364,2149107099,2150967899,2147373120,695,-2,9,50195
1372354258,5809,99.1500015258789000,21.6075992584228500,36.5802001953125000,249.0097045898437500,37.2714996337890600,21.5810909271240230,28.5649394989013670,115,117,96,84,64,10195,2146984237,2147624155,2147473536,2147444233,2148589220,2150596160,2153251812,2147553682,3529,-1,9,44051
1372354348,5805,97.5999984741211000,22.0494003295898440,36.6161003112793000,248.9889068603515600,23.7792892456054700,21.9943294525146500,28.3970108032226560,127,123,96,86,64,10181,2146989476,2147650450,2147523236,2147445540,2148943140,2151335158,2154404745,2147652937,653,-1,8,33018
1372354674,5808,95.0299987792968800,22.3649997711181640,36.6171989440918000,249.8309020996093800,12.6240997314453120,22.3367004394531250,28.2214698791503900,141,125,97,85,63,10151,2146994212,2147645449,2147504109,2147443684,2149043465,2151230107,2154030738,2147643940,1928,-1,9,55704
1372354740,5808,92.9199981689453100,22.5160999298095700,36.6155014038085940,247.5252990722656200,7.4427552223205570,22.4959506988525400,28.2570705413818360,148,136,96,86,64,10143,2147003337,2147664411,2147535899,2147446491,2149371510,2151803702,2154823634,2147720000,2696,-2,9,6715
1372354806,5805,91.3700027465820300,22.5412006378173830,36.6162986755371100,247.9058990478515600,6.2423229217529300,22.5328598022460940,28.2256298065185550,142,130,98,87,64,10148,2147007497,2147668973,2147540470,2147445220,2149464009,2151867236,2154843986,2147731337,3083,-2,9,34437
1372354894,5803,89.4700012207031200,22.5713996887207030,36.6142005920410160,250.1403961181640600,5.2085909843444820,22.5646591186523440,28.1162395477294920,148,136,96,86,64,10144,2147012077,2147692763,2147581997,2147447360,2149847771,2152514816,2155722459,2147822363,3428,-1,8,33701
1372354988,5803,86.6500015258789000,22.6851005554199220,36.6041984558105500,251.8607025146484400,1.4054859876632690,22.6816902160644530,27.9955291748046880,140,138,98,89,61,10145,2147036050,2147762907,2147698605,2147452818,2150988178,2154505115,2158433472,2148094016,117,-1,8,27720
1372355043,5808,84.4199981689453100,22.8134002685546880,36.6059989929199200,251.1912994384765600,-2.4916379451751710,22.8017005920410160,27.9758796691894530,137,132,99,86,63,10147,2147038829,2147775725,2147709165,2147455360,2151226130,2154761462,2158573037,2148127762,3476,-1,9,40963
1372355098,5806,82.3799972534179700,23.1716003417968750,36.5763015747070300,253.1235046386718800,-10.6694402694702150,23.0538196563720700,27.7929992675781250,123,132,98,87,63,10146,2147048009,2147798875,2147744109,2147456420,2151708096,2155506011,2159446125,2148234706,3569,0,9,58859
1372355153,5804,81.0699996948242200,23.2490005493164060,36.5713996887207000,257.1514892578125000,-14.8375196456909180,23.1824703216552730,27.5733890533447270,108,132,101,87,64,10162,2147050651,2147795053,2147732288,2147454656,2151664393,2155306139,2159002020,2148206363,104,-2,9,45534
1372355281,5806,78.7399978637695300,23.3335990905761720,36.5586013793945300,258.1589050292969000,-19.6441593170166000,23.3309707641601560,27.4731407165527340,107,131,99,87,64,10154,2147075849,2147877796,2147845001,2147464704,2152936795,2157375433,2161445339,2148462098,413,-2,8,19273
1372355336,5807,76.6600036621093800,23.3803997039794920,36.5544013977050800,257.4632873535156000,-21.0028305053710940,23.3729705810546880,27.4850292205810550,102,131,101,87,62,10148,2147113225,2147968758,2147972397,2147472045,2154562806,2160103844,2164788928,2148813970,3568,-2,9,65449
1372355391,5803,74.4899978637695300,23.3841991424560550,36.5545997619628900,256.9937133789062500,-21.2960090637207030,23.3820304870605470,27.5008201599121100,106,132,101,88,62,10144,2147143296,2148049106,2148070144,2147476900,2156109668,2162604534,2167691364,2149132068,2897,-2,9,23611
1372355446,5805,72.2099990844726600,23.4995002746582030,36.5391006469726560,255.8769073486328000,-25.1628398895263670,23.5016403198242200,27.4999294281005860,105,138,101,88,60,10141,2147176512,2148131282,2148174354,2147481965,2157612150,2164892077,2170139099,2149425069,2586,-1,8,41003
1372355501,5801,70.4300003051757800,23.6488990783691400,36.5180015563964840,265.3951110839844000,-28.7471199035644530,23.6125907897949220,27.0696697235107420,103,141,102,90,62,10112,2147211017,2148231259,2148302619,2147494637,2159320512,2167608512,2173226880,2149770404,2978,-1,9,34422
1372355585,5805,68.6299972534179700,23.7385005950927730,36.5070991516113300,271.8146057128906000,-31.7667903900146500,23.7061290740966800,26.7818508148193360,94,140,101,89,61,10119,2147261549,2148350144,2148449060,2147505618,2161494939,2170823552,2176403730,2150140516,3327,-1,9,60516
1372355640,5805,66.9599990844726600,23.8903007507324220,36.4936981201171900,273.0166931152344000,-36.8986701965332000,23.8652305603027340,26.6738700866699220,91,134,100,89,61,10129,2147287369,2148413851,2148506267,2147512356,2162718619,2172447945,2177597330,2150287972,74,-1,9,33094
1372355706,5805,65.3399963378906200,23.9848003387451170,36.4854011535644500,270.6596984863281000,-40.5169792175293000,23.9775104522705080,26.7212295532226560,88,136,102,90,63,10128,2147337828,2148537810,2148642413,2147522157,2165240777,2176216246,2181291392,2150734445,103,-1,8,3337
1372355794,5805,63.4199981689453100,24.2521991729736330,36.4996986389160160,272.2620849609375000,-48.2807388305664060,24.2187404632568360,26.5662708282470700,78,125,99,88,62,10153,2147312649,2148450861,2148480448,2147509165,2163779666,2173238253,2176849654,2150247707,288,-2,9,26212
1372355889,5806,61.0499992370605500,24.3780994415283200,36.4897994995117200,272.3044128417969000,-53.0418510437011700,24.3668708801269530,26.5075798034667970,77,132,99,88,63,10154,2147344384,2148510061,2148507227,2147514157,2165521334,2175377472,2178125010,2150422189,3547,-1,8,160
1372355944,5804,59.0099983215332000,24.3423004150390620,36.4641990661621100,273.3236999511719000,-52.2941093444824200,24.3435993194580080,26.4775295257568360,75,125,102,88,60,10162,2147373312,2148561645,2148528192,2147513718,2166914861,2176917933,2178990482,2150586633,3141,-1,9,21594
1372355999,5808,56.8800010681152340,24.3808994293212900,36.4345016479492200,276.6954040527344000,-53.5394897460937500,24.3823699951171880,26.3348102569580080,76,123,100,87,60,10161,2147408914,2148640128,2148604864,2147525458,2168827977,2179162907,2180519360,2150814464,3573,-1,9,48540
1372356054,5809,55.0099983215332000,24.5242004394531250,36.4049987792968750,273.3648986816406000,-57.6281890869140600,24.5097198486328120,26.4121704101562500,74,123,99,86,63,10170,2147424850,2148656777,2148595090,2147527808,2169818797,2180028187,2180730688,2150910445,3579,-1,9,45990
1372356237,5804,51.3800010681152340,24.6700992584228500,36.4104995727539060,273.1458129882812500,-62.3932304382324200,24.6583003997802730,26.3636093139648440,72,130,96,88,59,10147,2147565622,2148955776,2148894354,2147559003,2177140644,2189539172,2189176539,2152152987,2003,-1,9,9360
1372356282,5803,49.5000000000000000,24.6877994537353500,36.3964004516601560,268.1073913574219000,-63.3552703857421900,24.6883106231689450,26.5462093353271500,71,120,98,86,63,10149,2147650953,2149148388,2149061074,2147572690,2181426706,2194879698,2193487140,2152789120,2522,-2,9,981
1372356327,5802,47.5600013732910160,24.7703990936279300,36.3970985412597660,268.8865051269531000,-65.2709808349609400,24.7481098175048830,26.4928798675537100,69,120,96,87,60,10153,2147797440,2149441325,2149351021,2147606838,2188474816,2204051364,2201613668,2153963821,2977,-1,9,10889
1372356372,5806,45.7799987792968750,24.7390003204345700,36.2645988464355500,278.2134094238281000,-64.9139785766601600,24.7369594573974600,26.1426506042480470,68,121,98,86,60,10156,2147926464,2149683154,2149557302,2147630116,2193662006,2210456137,2206964068,2154795949,2732,-1,9,38486
1372356554,5807,43.7200012207031250,25.0876007080078120,36.2708015441894500,304.5747985839844000,-75.2789382934570300,25.0609092712402340,25.0890998840332030,66,118,98,86,59,10157,2147847753,2149412352,2149181485,2147611190,2189174802,2201134820,2195445019,2153292297,107,-1,9,22874
1372356623,5803,41.5299987792968750,25.1996994018554700,36.3035011291503900,306.6619873046875000,-79.2261199951171900,25.1844902038574220,24.9735908508300780,65,120,96,84,57,10152,2148099346,2149923657,2149701302,2147700452,2201110390,2215349376,2207173668,2155125321,601,-1,9,30856
1372356668,5806,39.7599983215332000,25.2157001495361330,36.3101005554199200,292.9977111816406000,-80.1153793334961000,25.2123508453369140,25.4292697906494140,66,120,98,87,62,10159,2148277513,2150266660,2150060004,2147786944,2210528146,2226420086,2216314578,2156744237,815,-1,9,47080
1372356725,5804,37.6399993896484400,25.2595996856689450,36.3157005310058600,294.5748901367187500,-82.8192520141601600,25.2970905303955080,25.3425102233886720,64,118,98,88,61,10162,2148330752,2150332406,2150033344,2147755949,2213704630,2229024704,2217325449,2157121545,346,-1,9,43202
1372356794,5805,35.9399986267089840,25.3626003265380860,36.3069000244140600,295.1123046875000000,-85.1075134277343800,25.3688507080078120,25.2971305847167970,63,119,96,85,62,10165,2148952100,2151591012,2151272758,2147937947,2246650870,2270110400,2252871058,2162896539,280,-1,9,868
1372356903,5805,33.8499984741210940,25.6537990570068360,36.2386016845703100,299.0158996582031000,-94.4249572753906200,25.6614799499511720,25.0541896820068360,61,119,97,85,60,10160,2149280530,2152195776,2151875547,2148141760,2265270518,2290192768,2267257618,2165648978,709,-1,8,2094